Weather in Aksy-Barlyk

Russia / Tyva Republic     51°07′12″N   90°24′07″E
temp.,
°C
wind,
m/s
gust,
m/s
humid.,
%
clouds,
%
prec.,
mm/h
press.,
hPa
HPBL,
m
5 march, fri
fri501:00−17se009124 0.0 103020
04:00−17se009796 0.1 102920
07:00−19e119794 0.1 102920
10:00−15ne1192100 0.0 102775
13:00−12ne228498 0.1 1023302
16:00−10n2175100 0.0 1022320
19:00−14s118491 0.1 102721
22:00−14sse017730 0.0 103221
6 march, sat
sat601:00−16sse017228 0.0 103422
04:00−18e017780 0.0 103420
07:00−19s008377 0.0 103520
10:00−15n118374 0.0 103234
13:00−11ne228153 0.0 1028185
16:00−8ne228018 0.0 1024209
19:00−14ene11889 0.0 102621
22:00−17ese019028 0.0 102620
7 march, sun
sun701:00−17sse008814 0.0 102720
04:00−19se01890 0.0 102520
07:00−19ene01876 0.0 102720
10:00−15nne118862 0.0 102532
13:00−10nne218355 0.0 1023171
16:00−7nne117615 0.0 1022168
19:00−13ene11838 0.0 102521
22:00−15ene11817 0.0 102821
8 march, mon
mon801:00−16ese018246 0.0 102920
04:00−17se0084100 0.0 102820
07:00−18se018583 0.0 102920
10:00−13nne11858 0.0 102653
13:00−9ne11804 0.0 1023226
16:00−8ne11800 0.0 1020213
19:00−13ene01850 0.0 102221
22:00−14e018458 0.0 102321
9 march, tue
tue901:00−14ene018374 0.0 102420
04:00−13n0183100 0.0 102521
07:00−15ne118154 0.0 102721
10:00−10nne118013 0.0 102730
13:00−6ne22838 0.0 1026182
16:00−5ne21840 0.0 1024174
19:00−11ene11910 0.0 102621
22:00−13e01920 0.0 102821